[[{"header":{"parameterUnit":"m.s-1","parameterCategory":2,"la1":30.2991,"la2":30.254,"lo1":-89.0895,"lo2":-89.0444,"dy":0.0017,"dx":0.0017,"nx":28,"ny":28,"refTime":"2024-04-01T03:00:00:Z","depth":"0","parameterNumber":2,"parameterNumberName":"U-component_of_CURRENTS"},"data":[0,0,0,0,0,0,0,0,0,0,0,0,0,0,0,0,0,0,0,0,0,0,0,0,0,0,0,0,0,0,0,0,0,0,0,0,0,0,0,0,0,0,0,0,0,0,0,0,0,0,0,0,0,0,0,0,0,0,0.2784,0.2785,0,0.2823,0.2824,0.2824,0.2814,0.2814,0.2813,0.2813,0.2833,0.2834,0.2835,0,0,0,0,0,0,0,0,0,0,0,0,0,0.2721,0.2722,0.2784,0.2785,0.2786,0.2823,0.2824,0.2824,0.2814,0.2814,0.2813,0.2813,0.2833,0.2834,0.2835,0,0,0,0,0,0,0,0,0,0,0,0,0,0.275,0.2722,0.2784,0.2788,0.2789,0.2823,0.2824,0.2824,0.2814,0.2814,0.2813,0.2812,0.2832,0.2834,0.2835,0.2858,0,0,0.2839,0.284,0,0,0,0,0,0,0,0,0.2748,0.2752,0.2786,0.2788,0.2789,0.2816,0.2809,0.2835,0.2814,0.2801,0.2813,0.2812,0.2828,0.283,0.2834,0.2859,0.2859,0.2839,0.284,0.2841,0.2841,0,0,0,0,0,0,0,0.2746,0.275,0.2796,0.2787,0.2789,0.2795,0.2798,0.2814,0.2815,0.2802,0.2802,0.2812,0.2828,0.2833,0.2835,0.286,0.2839,0.2841,0.2842,0.2842,0.2939,0.294,0,0,0,0,0,0,0.2748,0.2748,0.2795,0.2798,0.277,0.2797,0.28,0.2805,0.2815,0.2817,0.2813,0.2812,0.2831,0.2833,0.2835,0.2887,0.2841,0.2842,0.2843,0.2937,0.2939,0.2941,0,0,0,0,0,0,0.2746,0.2751,0.2793,0.2777,0.2783,0.2799,0.2805,0.2806,0.2817,0.2824,0.2825,0.2822,0.283,0.2833,0.2862,0.2887,0.2843,0.2844,0.2935,0.2938,0.294,0.2975,0,0,0,0,0,0,0.2744,0.275,0.2755,0.2777,0.2784,0.2821,0.2806,0.2808,0.2825,0.2824,0.2833,0.2834,0.283,0.286,0.2863,0.2888,0.2845,0.2933,0.2936,0.2939,0.2971,0.2978,0.2984,0,0,0,0,0,0.2742,0.275,0.2755,0.2761,0.2789,0.2822,0.2826,0.2833,0.2826,0.2837,0.2846,0.2834,0.2882,0.2862,0.2866,0.2891,0.2931,0.2935,0.2939,0.2969,0.2977,0.2984,0,0,0,0,0,0,0.272,0.2751,0.2756,0.2772,0.28,0.2822,0.2833,0.284,0.2855,0.2853,0.2853,0.2855,0.2892,0.2891,0.2869,0.2931,0.2906,0.2911,0.2928,0.2935,0.2941,0.295,0.2847,0,0,0,0,0,0.272,0.2736,0.2768,0.2781,0.2796,0.2817,0.2831,0.2839,0.2857,0.2862,0.287,0.2885,0.2912,0.2921,0.2941,0.2972,0.2988,0.2993,0.2999,0.3004,0.3016,0.3071,0.3084,0.2953,0.2953,0.2953,0,0,0.2716,0.2736,0.2744,0.2778,0.2798,0.2825,0.2823,0.2849,0.2873,0.2864,0.2893,0.2908,0.2927,0.2964,0.298,0.2964,0.305,0.3009,0.3013,0.3022,0.3077,0.3089,0.3101,0.2956,0.2956,0.2955,0,0,0.2721,0.2734,0.2754,0.2779,0.2816,0.2833,0.2845,0.2875,0.2889,0.2923,0.2929,0.2964,0.2989,0.3015,0.303,0.3086,0.3085,0.3089,0.3122,0.3176,0.3187,0.3197,0.323,0.3242,0.3088,0.3088,0.3088,0,0.2715,0.274,0.2765,0.2792,0.2815,0.2839,0.2868,0.2891,0.2926,0.2952,0.2936,0.3009,0.3018,0.3082,0.3099,0.3101,0.3122,0.3088,0.3184,0.3194,0.3203,0.3235,0.3248,0.309,0.309,0.3089,0.3089,0,0.2737,0.2759,0.2774,0.2816,0.2847,0.2873,0.2915,0.2947,0.2964,0.2991,0.3055,0.3074,0.312,0.3129,0.3128,0.3206,0.3196,0.3187,0.3161,0.3218,0.3248,0.3261,0.3093,0.3092,0.3091,0.3091,0,0,0.2711,0.2776,0.2779,0.2801,0.2859,0.2883,0.2941,0.3002,0.3044,0.3076,0.3137,0.3183,0.3198,0.3218,0.3227,0.3268,0.3347,0.3254,0.3256,0.328,0.3456,0.344,0.3452,0.3352,0.3354,0.3357,0.3447,0,0.2717,0.2762,0.2802,0.2845,0.2871,0.2925,0.2976,0.3036,0.3086,0.3148,0.3193,0.3247,0.3231,0.3256,0.3299,0.3346,0.3385,0.3322,0.3403,0.3405,0.3379,0.3469,0.3371,0.3444,0.346,0.3462,0.3464,0,0.2718,0.275,0.2794,0.2861,0.2879,0.2913,0.3004,0.3056,0.3161,0.3203,0.3275,0.3309,0.3394,0.3357,0.3468,0.343,0.3449,0.3469,0.3473,0.3457,0.3415,0.3391,0.3467,0.3388,0.3484,0.3483,0.3481,0,0.2671,0.2737,0.277,0.2791,0.2877,0.2916,0.2967,0.3071,0.3143,0.3246,0.3317,0.3394,0.3464,0.3504,0.3558,0.352,0.367,0.3621,0.362,0.3618,0.3552,0.354,0.3556,0.3693,0.3693,0.3692,0.3692,0,0.2654,0.2675,0.2748,0.2762,0.2821,0.2886,0.297,0.304,0.3163,0.3259,0.334,0.3438,0.3509,0.3602,0.3605,0.3677,0.3715,0.3655,0.3657,0.3561,0.3549,0.3489,0.3454,0.3696,0.3695,0.3694,0.3694,0,0.2607,0.2647,0.2693,0.2774,0.2802,0.2847,0.298,0.3044,0.3165,0.3301,0.3343,0.3511,0.3628,0.3689,0.3776,0.376,0.3709,0.3806,0.3682,0.3668,0.3563,0.3533,0.3417,0.3314,0.3815,0.3816,0.3816,0,0.2593,0.2608,0.2692,0.273,0.2772,0.285,0.291,0.3032,0.3115,0.3342,0.3406,0.358,0.3684,0.3828,0.3831,0.3856,0.3729,0.377,0.3677,0.3574,0.3543,0.3368,0.3275,0.3598,0.3597,0.3596,0.3595,0,0.2587,0.2613,0.2664,0.2723,0.2781,0.2845,0.2937,0.2999,0.3153,0.3274,0.3434,0.3538,0.3718,0.3732,0.3801,0.3792,0.3601,0.3745,0.3679,0.3423,0.3194,0.3089,0.3508,0.3584,0.3585,0.3586,0.3586,0.3587,0.2602,0.263,0.2687,0.2735,0.2784,0.2811,0.283,0.2932,0.3035,0.3172,0.3346,0.345,0.3601,0.3691,0.366,0.358,0.3528,0.3487,0.3475,0.3316,0.3166,0.3561,0.3613,0.3614,0.3615,0.3616,0.3617,0,0.263,0.2652,0.2693,0.2729,0.2726,0.2765,0.2825,0.2818,0.2868,0.3031,0.3142,0.3288,0.334,0.341,0.3447,0.3347,0.3138,0.3257,0.2991,0.2925,0.3331,0.3273,0.3205,0.3205,0.3205,0.3205,0.3205,0.3205,0.266,0.2687,0.2679,0.2654,0.2656,0.2606,0.2603,0.2604,0.2673,0.2746,0.2824,0.2942,0.319,0.3315,0.3245,0.3158,0.2905,0.2784,0.2745,0.3062,0.3081,0.3098,0.3035,0.2919,0.2918,0.2201,0.2196,0.2192]},{"header":{"parameterUnit":"m.s-1","parameterCategory":2,"la1":30.2991,"la2":30.254,"lo1":-89.0895,"lo2":-89.0444,"dy":0.0017,"dx":0.0017,"nx":28,"ny":28,"refTime":"2024-04-01T03:00:00:Z","depth":"0","parameterNumber":3,"parameterNumberName":"V-component_of_CURRENTS"},"data":[0,0,0,0,0,0,0,0,0,0,0,0,0,0,0,0,0,0,0,0,0,0,0,0,0,0,0,0,0,0,0,0,0,0,0,0,0,0,0,0,0,0,0,0,0,0,0,0,0,0,0,0,0,0,0,0,0,0,0.0199,0.0198,0,0.0148,0.0147,0.0146,0.0107,0.0107,0.0107,0.0106,0.0025,0.0023,0.0021,0,0,0,0,0,0,0,0,0,0,0,0,0,0.0205,0.0205,0.0199,0.0198,0.0198,0.0148,0.0147,0.0146,0.0107,0.0107,0.0107,0.0106,0.0026,0.0024,0.0021,0,0,0,0,0,0,0,0,0,0,0,0,0,0.0181,0.0205,0.0199,0.0173,0.0171,0.0148,0.0147,0.0146,0.0107,0.0107,0.0107,0.0106,0.0027,0.0024,0.0021,0.0009,0,0,0.0012,0.0011,0,0,0,0,0,0,0,0,0.0183,0.0181,0.0178,0.0175,0.0172,0.0135,0.012,0.0099,0.0107,0.0129,0.0106,0.0106,0.006,0.0055,0.0044,0.0005,0.0002,0.0012,0.001,0.0009,0.0008,0,0,0,0,0,0,0,0.0185,0.0183,0.0177,0.0177,0.0174,0.0145,0.0142,0.0115,0.0096,0.0128,0.0125,0.0122,0.0058,0.0047,0.0042,0.0001,0.0012,0.0009,0.0007,0.0006,-0.0044,-0.0044,0,0,0,0,0,0,0.0198,0.0185,0.0178,0.0175,0.0179,0.0146,0.0142,0.0146,0.0096,0.0089,0.0123,0.0121,0.0052,0.0045,0.0039,0.0043,0.0009,0.0006,0.0004,-0.0045,-0.0044,-0.0044,0,0,0,0,0,0,0.0198,0.0198,0.018,0.018,0.0176,0.0147,0.0151,0.0145,0.0138,0.0093,0.0085,0.0122,0.0051,0.0043,0.0024,0.0039,0.0005,0.0002,-0.0045,-0.0045,-0.0044,0.0039,0,0,0,0,0,0,0.0199,0.0199,0.0204,0.0181,0.0176,0.0179,0.0151,0.0144,0.0137,0.0134,0.009,0.0082,0.0051,0.0029,0.0021,0.0034,-0.0,-0.0046,-0.0045,-0.0044,0.0036,0.0042,0.0048,0,0,0,0,0,0.0199,0.0216,0.0205,0.0204,0.0186,0.018,0.0175,0.0151,0.0138,0.0142,0.0111,0.0083,0.0028,0.0027,0.0018,0.0031,-0.0046,-0.0045,-0.0044,0.0033,0.0041,0.0048,0,0,0,0,0,0,0.0222,0.0213,0.02,0.0213,0.0201,0.0174,0.0175,0.0159,0.0137,0.0134,0.0089,0.0079,0.0068,0.0037,0.0037,0.0017,-0.0014,-0.0015,0.0048,0.0055,0.0061,0.0081,-0.0003,0,0,0,0,0,0.023,0.0239,0.0223,0.0232,0.0229,0.0202,0.0196,0.0183,0.0162,0.0152,0.012,0.0087,0.0064,0.0051,0.0023,0.0014,-0.0018,0.0014,0.0021,0.0026,0.0036,-0.0001,0.0003,-0.0041,-0.0041,-0.0041,0,0,0.0242,0.0237,0.0241,0.0237,0.0223,0.0234,0.0198,0.0198,0.0206,0.0146,0.0145,0.0108,0.0066,0.0057,0.0049,0.0034,0.0022,0.0027,0.0033,0.0039,0.0,0.0005,0.0009,-0.004,-0.004,-0.004,0,0,0.0275,0.0265,0.0285,0.028,0.027,0.0258,0.0264,0.0243,0.0233,0.0225,0.0187,0.0162,0.0123,0.01,0.0082,0.0104,0.0057,0.0093,0.0141,0.0105,0.0109,0.0112,0.0082,0.0082,0.0096,0.0096,0.0096,0,0.0288,0.031,0.029,0.0306,0.031,0.0277,0.0301,0.0289,0.0265,0.0263,0.0236,0.0185,0.0145,0.014,0.0145,0.012,0.0092,0.0119,0.0115,0.0117,0.0118,0.0087,0.0085,0.01,0.01,0.0099,0.0099,0,0.0335,0.035,0.0362,0.0374,0.0377,0.039,0.0377,0.038,0.036,0.034,0.0326,0.0269,0.024,0.0221,0.0188,0.0184,0.0159,0.0128,0.01,0.0128,0.0093,0.009,0.0106,0.0104,0.0103,0.0102,0,0,0.0372,0.0392,0.0396,0.0418,0.0413,0.0429,0.0447,0.0455,0.0478,0.0431,0.0449,0.0389,0.035,0.0327,0.028,0.0246,0.0226,0.0196,0.0193,0.0176,0.0152,0.0142,0.0137,0.0194,0.0194,0.0193,0.0126,0,0.0414,0.0466,0.0462,0.0514,0.0542,0.0525,0.0551,0.0552,0.0538,0.0545,0.0481,0.0468,0.0394,0.0382,0.0337,0.0261,0.022,0.0247,0.012,0.0117,0.0111,0.0134,0.0156,0.0098,0.0123,0.0122,0.0121,0,0.0462,0.0493,0.0553,0.0598,0.061,0.0639,0.0681,0.0699,0.0692,0.0679,0.0645,0.0586,0.0537,0.0465,0.0343,0.0364,0.0265,0.0194,0.0189,0.015,0.0101,0.0072,0.0091,-0.0084,0.0116,0.0116,0.0117,0,0.0508,0.0558,0.0613,0.0625,0.0668,0.0703,0.0731,0.0742,0.0785,0.0765,0.0793,0.0694,0.0679,0.0536,0.0382,0.0359,0.0247,0.0195,0.0091,0.0089,0.0068,0.0065,-0.0089,0.01,0.01,0.01,0.01,0,0.0558,0.0601,0.0646,0.0677,0.0767,0.0767,0.0859,0.0868,0.0905,0.0984,0.087,0.0913,0.0696,0.0604,0.0428,0.0266,0.0277,0.0109,0.0074,0.0098,0.0098,-0.0087,-0.018,0.0098,0.0098,0.0099,0.0099,0,0.0604,0.0623,0.07,0.0763,0.0794,0.0864,0.0968,0.1036,0.105,0.1156,0.1157,0.1086,0.0962,0.0738,0.052,0.0357,0.0079,0.0107,0.0154,0.0126,-0.0141,-0.0229,-0.041,-0.0487,-0.0021,-0.0022,-0.0022,0,0.0634,0.0677,0.0774,0.0845,0.0884,0.0986,0.1067,0.111,0.1194,0.1284,0.1348,0.1257,0.1229,0.0898,0.0563,0.0248,0.0073,0.0068,0.002,-0.0144,-0.0269,-0.0336,-0.0392,0.0021,0.0021,0.0021,0.0021,0,0.0708,0.074,0.0814,0.0947,0.105,0.1169,0.1287,0.1377,0.1456,0.1552,0.1657,0.1639,0.133,0.1016,0.0573,0.0354,-0.0044,0.0056,-0.013,-0.0256,-0.0323,-0.0416,0.0052,0.002,0.002,0.002,0.002,0.002,0.0777,0.0848,0.0947,0.1074,0.1195,0.1342,0.1451,0.1589,0.1748,0.1904,0.1883,0.1891,0.144,0.0834,0.0507,-0.0059,-0.007,-0.0229,-0.0323,-0.0378,-0.045,0.0025,-0.0037,-0.0038,-0.0038,-0.0038,-0.0038,0,0.0866,0.0945,0.1069,0.1224,0.1356,0.1398,0.1593,0.1711,0.1915,0.2055,0.2142,0.1918,0.1367,0.0799,0.0038,-0.0364,-0.0509,-0.0579,-0.0682,-0.0725,-0.0317,-0.0313,-0.0416,-0.0416,-0.0415,-0.0415,-0.0415,-0.0415,0.0929,0.1052,0.1104,0.1329,0.1435,0.1612,0.1723,0.191,0.2044,0.2221,0.2225,0.2183,0.1763,0.0401,-0.0525,-0.074,-0.1001,-0.106,-0.1207,-0.0945,-0.092,-0.0896,-0.0915,-0.1143,-0.1144,-0.156,-0.1564,-0.1567]}],[{"header":{"parameterUnit":"m.s-1","parameterCategory":2,"la1":30.2991,"la2":30.254,"lo1":-89.0895,"lo2":-89.0444,"dy":0.0017,"dx":0.0017,"nx":28,"ny":28,"refTime":"2024-04-01T03:00:00:Z","depth":"2","parameterNumber":2,"parameterNumberName":"U-component_of_CURRENTS"},"data":[0,0,0,0,0,0,0,0,0,0,0,0,0,0,0,0,0,0,0,0,0,0,0,0,0,0,0,0,0,0,0,0,0,0,0,0,0,0,0,0,0,0,0,0,0,0,0,0,0,0,0,0,0,0,0,0,0,0,0.2505,0.2506,0,0.2543,0.2544,0.2544,0.2547,0.2547,0.2547,0.2547,0.2572,0.2572,0.2573,0,0,0,0,0,0,0,0,0,0,0,0,0,0.2444,0.2444,0.2505,0.2506,0.2507,0.2543,0.2544,0.2544,0.2547,0.2547,0.2547,0.2547,0.2571,0.2572,0.2573,0,0,0,0,0,0,0,0,0,0,0,0,0,0.2472,0.2445,0.2505,0.2515,0.2517,0.2543,0.2544,0.2544,0.2547,0.2547,0.2547,0.2547,0.2571,0.2572,0.2573,0.2584,0,0,0.2577,0.2578,0,0,0,0,0,0,0,0,0.247,0.2474,0.2513,0.2514,0.2516,0.2543,0.2531,0.2558,0.2547,0.2533,0.2547,0.2547,0.2563,0.2565,0.2568,0.2586,0.2587,0.2577,0.2578,0.2578,0.2579,0,0,0,0,0,0,0,0.2468,0.2472,0.2517,0.2514,0.2516,0.2521,0.2524,0.2536,0.2546,0.2534,0.2535,0.2544,0.2563,0.2567,0.2569,0.2587,0.2577,0.2578,0.2579,0.2579,0.267,0.2672,0,0,0,0,0,0,0.247,0.2471,0.2516,0.2519,0.2496,0.2522,0.2526,0.2532,0.2546,0.2549,0.2544,0.2544,0.2565,0.2568,0.257,0.2625,0.2578,0.2579,0.258,0.2668,0.2671,0.2672,0,0,0,0,0,0,0.2468,0.2473,0.2515,0.2498,0.2504,0.2524,0.2531,0.2533,0.2549,0.2555,0.2556,0.2559,0.2565,0.2568,0.2598,0.2624,0.258,0.2581,0.2666,0.2669,0.2671,0.2709,0,0,0,0,0,0,0.2466,0.2472,0.248,0.2498,0.2505,0.254,0.2531,0.2534,0.2556,0.2556,0.2568,0.2569,0.2565,0.2596,0.2599,0.2625,0.2582,0.2664,0.2668,0.2671,0.2705,0.2712,0.2718,0,0,0,0,0,0.2464,0.2473,0.248,0.2485,0.2513,0.2541,0.2545,0.2556,0.2557,0.2568,0.2581,0.2569,0.2619,0.2598,0.2601,0.2628,0.2663,0.2667,0.267,0.2703,0.2711,0.2718,0,0,0,0,0,0,0.2446,0.2475,0.2482,0.2499,0.2524,0.2543,0.2556,0.2566,0.2584,0.2587,0.2587,0.259,0.2628,0.2627,0.2604,0.2667,0.2641,0.2645,0.2664,0.2672,0.2679,0.2685,0.2583,0,0,0,0,0,0.2448,0.2463,0.2492,0.2506,0.2521,0.2542,0.2556,0.2567,0.2586,0.2594,0.2604,0.2621,0.2645,0.2656,0.2673,0.2704,0.2717,0.2727,0.2733,0.2738,0.2748,0.2798,0.281,0.2685,0.2685,0.2685,0,0,0.2445,0.2463,0.2472,0.2504,0.2523,0.2548,0.2549,0.2577,0.26,0.2594,0.2627,0.2643,0.266,0.2696,0.2713,0.2698,0.2781,0.2743,0.2747,0.2754,0.2804,0.2816,0.2826,0.2688,0.2687,0.2687,0,0,0.245,0.2466,0.2483,0.2507,0.2544,0.2559,0.2572,0.2603,0.262,0.2656,0.2663,0.2699,0.2725,0.2748,0.2762,0.2817,0.2815,0.2822,0.2857,0.2907,0.2917,0.2926,0.2956,0.2968,0.2824,0.2824,0.2824,0,0.2447,0.247,0.2493,0.2519,0.2541,0.2567,0.2594,0.2617,0.2654,0.2682,0.2672,0.2744,0.2753,0.2812,0.283,0.2831,0.2852,0.2822,0.2914,0.2924,0.2933,0.2961,0.2974,0.2826,0.2826,0.2826,0.2825,0,0.2465,0.2488,0.2502,0.2541,0.2571,0.2597,0.2636,0.2671,0.2694,0.2721,0.2786,0.2805,0.2852,0.2862,0.286,0.2935,0.2926,0.2916,0.2891,0.2948,0.2974,0.2986,0.2829,0.2828,0.2828,0.2827,0,0,0.2441,0.2502,0.2506,0.2528,0.2585,0.2605,0.2663,0.2721,0.2764,0.2802,0.2862,0.2907,0.2927,0.2946,0.2956,0.2994,0.307,0.2983,0.2985,0.3006,0.3172,0.3138,0.3147,0.3076,0.3079,0.308,0.3163,0,0.2447,0.2487,0.2525,0.2567,0.259,0.2645,0.2693,0.2753,0.2805,0.2868,0.2913,0.2968,0.2956,0.2986,0.3027,0.3068,0.3105,0.3048,0.312,0.3122,0.3079,0.3162,0.292,0.2971,0.3175,0.3177,0.3178,0,0.2446,0.2474,0.2517,0.258,0.2598,0.2633,0.2722,0.2773,0.2876,0.292,0.2994,0.303,0.3112,0.3081,0.3184,0.3149,0.3167,0.3184,0.3187,0.3152,0.3112,0.295,0.2986,0.3198,0.3197,0.3195,0.3194,0,0.2401,0.2464,0.2494,0.2516,0.2596,0.2638,0.2689,0.2791,0.2857,0.2963,0.3028,0.311,0.3177,0.3216,0.3267,0.3234,0.3367,0.3324,0.3306,0.3303,0.311,0.3086,0.339,0.3389,0.3389,0.3389,0.3389,0,0.2384,0.2405,0.2476,0.2491,0.2543,0.2611,0.2691,0.276,0.2881,0.2966,0.3053,0.3136,0.3219,0.3304,0.3309,0.3364,0.3409,0.3336,0.3335,0.3116,0.3093,0.3295,0.3283,0.3392,0.3391,0.3391,0.339,0,0.2337,0.2378,0.2416,0.2496,0.2525,0.2565,0.2693,0.2757,0.2874,0.2994,0.3037,0.3197,0.3305,0.3373,0.3457,0.3435,0.3469,0.3466,0.3201,0.3169,0.3353,0.3342,0.3455,0.3455,0.3455,0.3455,0.3455,0,0.2318,0.2332,0.2408,0.2442,0.2483,0.2557,0.2618,0.2739,0.2817,0.302,0.3075,0.324,0.3325,0.3454,0.345,0.3471,0.35,0.3248,0.3141,0.3379,0.3367,0.3356,0.3346,0.2893,0.2889,0.2885,0.2882,0,0.229,0.2318,0.2356,0.242,0.2477,0.2532,0.2626,0.2678,0.2828,0.293,0.3066,0.3152,0.3307,0.3244,0.3304,0.3269,0.3224,0.3172,0.3506,0.2923,0.2858,0.2844,0.285,0.2847,0.2851,0.2853,0.2855,0.2856,0.2276,0.2294,0.2348,0.2399,0.2454,0.2484,0.2492,0.2591,0.2674,0.278,0.2939,0.2985,0.3058,0.3036,0.2951,0.2893,0.3104,0.2949,0.2956,0.2969,0.2898,0.2838,0.2809,0.2812,0.2814,0.2817,0.2819,0,0.2263,0.2291,0.233,0.2366,0.2372,0.2429,0.248,0.2454,0.2479,0.2612,0.2691,0.254,0.2542,0.2596,0.2472,0.2484,0.2407,0.2366,0.2238,0.2278,0.2312,0.2201,0.193,0.1927,0.1923,0.192,0,0,0.2265,0.228,0.2281,0.2265,0.2286,0.2248,0.2237,0.2211,0.2252,0.2223,0.2241,0.2457,0.2564,0.2222,0.2185,0.2032,0.2122,0.1951,0.268,0.2572,0.2601,0.2686,0.2568,0,0,0,0,0]},{"header":{"parameterUnit":"m.s-1","parameterCategory":2,"la1":30.2991,"la2":30.254,"lo1":-89.0895,"lo2":-89.0444,"dy":0.0017,"dx":0.0017,"nx":28,"ny":28,"refTime":"2024-04-01T03:00:00:Z","depth":"2","parameterNumber":3,"parameterNumberName":"V-component_of_CURRENTS"},"data":[0,0,0,0,0,0,0,0,0,0,0,0,0,0,0,0,0,0,0,0,0,0,0,0,0,0,0,0,0,0,0,0,0,0,0,0,0,0,0,0,0,0,0,0,0,0,0,0,0,0,0,0,0,0,0,0,0,0,0.0029,0.0029,0,-0.0015,-0.0016,-0.0017,-0.005,-0.005,-0.005,-0.005,-0.0125,-0.0127,-0.0129,0,0,0,0,0,0,0,0,0,0,0,0,0,0.0033,0.0033,0.0029,0.0029,0.0028,-0.0015,-0.0016,-0.0017,-0.005,-0.005,-0.005,-0.005,-0.0124,-0.0127,-0.0129,0,0,0,0,0,0,0,0,0,0,0,0,0,0.0013,0.0033,0.0029,0.0008,0.0006,-0.0015,-0.0016,-0.0017,-0.005,-0.005,-0.005,-0.005,-0.0124,-0.0126,-0.0129,-0.0142,0,0,-0.0138,-0.0139,0,0,0,0,0,0,0,0,0.0014,0.0013,0.0011,0.0009,0.0007,-0.0026,-0.0042,-0.006,-0.005,-0.003,-0.005,-0.005,-0.0093,-0.0099,-0.0108,-0.0145,-0.0148,-0.0138,-0.0139,-0.0141,-0.0141,0,0,0,0,0,0,0,0.0016,0.0014,0.001,0.0011,0.0008,-0.0018,-0.002,-0.0046,-0.0062,-0.0032,-0.0034,-0.0037,-0.0095,-0.0106,-0.011,-0.015,-0.0138,-0.014,-0.0142,-0.0143,-0.0191,-0.0191,0,0,0,0,0,0,0.0027,0.0016,0.0011,0.0009,0.0012,-0.0017,-0.002,-0.0016,-0.0061,-0.0067,-0.0036,-0.0038,-0.0101,-0.0107,-0.0113,-0.0108,-0.0141,-0.0143,-0.0145,-0.0192,-0.0191,-0.0191,0,0,0,0,0,0,0.0028,0.0028,0.0013,0.0012,0.0009,-0.0016,-0.0012,-0.0017,-0.0023,-0.0064,-0.0071,-0.0036,-0.0101,-0.0109,-0.0127,-0.0112,-0.0144,-0.0147,-0.0192,-0.0191,-0.0191,-0.0111,0,0,0,0,0,0,0.0028,0.0028,0.0034,0.0013,0.0009,0.0013,-0.0012,-0.0018,-0.0023,-0.0026,-0.0066,-0.0073,-0.0102,-0.0122,-0.0129,-0.0116,-0.0149,-0.0193,-0.0192,-0.0191,-0.0115,-0.0108,-0.0103,0,0,0,0,0,0.0029,0.0044,0.0035,0.0034,0.0019,0.0013,0.0009,-0.0011,-0.0023,-0.0019,-0.0046,-0.0072,-0.0123,-0.0124,-0.0132,-0.012,-0.0193,-0.0192,-0.0191,-0.0117,-0.011,-0.0103,0,0,0,0,0,0,0.005,0.0042,0.0031,0.0043,0.0033,0.0009,0.001,-0.0004,-0.0023,-0.0025,-0.0067,-0.0076,-0.0085,-0.0115,-0.0115,-0.0133,-0.0162,-0.0163,-0.0103,-0.0096,-0.0091,-0.0071,-0.0151,0,0,0,0,0,0.0058,0.0066,0.0051,0.006,0.0058,0.0035,0.0029,0.0018,-0.0001,-0.0009,-0.0038,-0.0068,-0.009,-0.0102,-0.0128,-0.0137,-0.0168,-0.0135,-0.0129,-0.0124,-0.0115,-0.015,-0.0146,-0.0188,-0.0188,-0.0188,0,0,0.0068,0.0064,0.0069,0.0065,0.0053,0.0064,0.0031,0.0032,0.0042,-0.0015,-0.0014,-0.0048,-0.0088,-0.0096,-0.0103,-0.0118,-0.0128,-0.0123,-0.0118,-0.0111,-0.0148,-0.0144,-0.014,-0.0187,-0.0187,-0.0188,0,0,0.0099,0.0091,0.011,0.0105,0.0098,0.0088,0.0093,0.0075,0.0068,0.0061,0.0026,0.0003,-0.0034,-0.0055,-0.0072,-0.0051,-0.0096,-0.0062,-0.0015,-0.0049,-0.0045,-0.0043,-0.0073,-0.0074,-0.0058,-0.0058,-0.0058,0,0.0112,0.0132,0.0114,0.013,0.0134,0.0105,0.0129,0.0119,0.0098,0.0097,0.0073,0.0024,-0.0012,-0.0017,-0.0012,-0.0036,-0.0063,-0.0036,-0.004,-0.0038,-0.0037,-0.0069,-0.0071,-0.0054,-0.0055,-0.0055,-0.0055,0,0.0155,0.017,0.0181,0.0194,0.0198,0.0212,0.0201,0.0206,0.0189,0.017,0.0158,0.0105,0.0078,0.006,0.003,0.0026,0.0001,-0.0027,-0.0053,-0.0027,-0.0063,-0.0067,-0.0049,-0.005,-0.0051,-0.0052,0,0,0.019,0.021,0.0213,0.0235,0.0234,0.0248,0.0268,0.0277,0.0298,0.0257,0.0272,0.0219,0.0183,0.0161,0.0117,0.0085,0.0066,0.0039,0.0035,0.0017,-0.0007,-0.0028,-0.0034,0.0036,0.0036,0.0036,-0.0034,0,0.023,0.028,0.0275,0.0326,0.0354,0.034,0.0366,0.0368,0.0355,0.036,0.0302,0.0289,0.0224,0.0214,0.0172,0.0097,0.006,0.0087,-0.0037,-0.004,-0.0055,-0.0037,-0.0011,-0.0072,-0.0038,-0.0039,-0.0039,0,0.0274,0.0305,0.0362,0.0406,0.0417,0.0444,0.0485,0.0503,0.0495,0.0482,0.0452,0.0398,0.0352,0.0289,0.0174,0.0194,0.0103,0.0034,0.0029,-0.0018,-0.0067,-0.0095,-0.008,-0.0045,-0.0045,-0.0044,-0.0044,0,0.0318,0.0366,0.0418,0.043,0.0472,0.0505,0.0532,0.0542,0.0577,0.056,0.0577,0.0494,0.0474,0.0348,0.0202,0.0186,0.007,0.0028,-0.0078,-0.0081,-0.0097,-0.0101,-0.0059,-0.0059,-0.0059,-0.0059,-0.0058,0,0.0364,0.0406,0.0448,0.0477,0.0557,0.0563,0.0641,0.0652,0.0681,0.0737,0.0645,0.0667,0.0488,0.0396,0.024,0.0081,0.0095,-0.0063,-0.0098,-0.0069,-0.0069,-0.0079,-0.0081,-0.0061,-0.0061,-0.006,-0.006,0,0.0403,0.0424,0.0493,0.0552,0.058,0.064,0.073,0.0787,0.0798,0.0872,0.0873,0.0804,0.0684,0.0494,0.0296,0.015,-0.0018,-0.0083,-0.0035,-0.0063,-0.0159,-0.0155,-0.0208,-0.0209,-0.021,-0.0211,-0.0212,0,0.0426,0.0463,0.0552,0.061,0.0644,0.0733,0.0804,0.0845,0.0913,0.0964,0.1009,0.0918,0.0872,0.0573,0.0293,0.002,-0.0019,-0.0137,-0.0168,-0.0144,-0.0173,-0.0168,-0.0163,-0.016,-0.0161,-0.0161,-0.0161,0,0.0472,0.0501,0.0563,0.0683,0.077,0.0873,0.0976,0.1046,0.1109,0.1165,0.1218,0.1183,0.0916,0.0645,0.0273,0.0087,-0.0094,-0.015,-0.0134,-0.0124,-0.0104,-0.0131,-0.0127,-0.0163,-0.0163,-0.0163,-0.0162,-0.0162,0.0507,0.0563,0.0649,0.0763,0.087,0.0998,0.1091,0.12,0.1312,0.141,0.1368,0.133,0.103,0.0557,0.0227,-0.0116,-0.0101,-0.0224,-0.0221,-0.0219,-0.0197,-0.018,-0.025,-0.025,-0.025,-0.025,-0.0251,0,0.0554,0.0622,0.0726,0.0861,0.0979,0.1033,0.1197,0.1287,0.1425,0.1517,0.1552,0.1259,0.0957,0.0608,0.0102,-0.0202,-0.0225,-0.0299,-0.0259,-0.0254,-0.0251,-0.023,-0.0292,-0.0293,-0.0294,-0.0295,0,0,0.0584,0.0682,0.0733,0.0921,0.1026,0.1187,0.1285,0.1417,0.1515,0.1589,0.1579,0.1524,0.1091,0.0716,0.0297,0.0005,-0.0052,-0.0053,0.0016,0.0119,0.0126,-0.0172,-0.0131,0,0,0,0,0]}],[{"header":{"parameterUnit":"m.s-1","parameterCategory":2,"la1":30.2991,"la2":30.254,"lo1":-89.0895,"lo2":-89.0444,"dy":0.0017,"dx":0.0017,"nx":28,"ny":28,"refTime":"2024-04-01T03:00:00:Z","depth":"4","parameterNumber":2,"parameterNumberName":"U-component_of_CURRENTS"},"data":[0,0,0,0,0,0,0,0,0,0,0,0,0,0,0,0,0,0,0,0,0,0,0,0,0,0,0,0,0,0,0,0,0,0,0,0,0,0,0,0,0,0,0,0,0,0,0,0,0,0,0,0,0,0,0,0,0,0,0.1637,0.1638,0,0.1704,0.1705,0.1705,0.1762,0.1763,0.1764,0.1765,0.1843,0.1845,0.1846,0,0,0,0,0,0,0,0,0,0,0,0,0,0.1548,0.155,0.1637,0.1638,0.1639,0.1704,0.1705,0.1705,0.1762,0.1763,0.1764,0.1765,0.1843,0.1845,0.1846,0,0,0,0,0,0,0,0,0,0,0,0,0,0.1596,0.155,0.1637,0.1677,0.1681,0.1704,0.1705,0.1706,0.1762,0.1763,0.1764,0.1765,0.1842,0.1844,0.1846,0.1834,0,0,0.1852,0.1853,0,0,0,0,0,0,0,0,0.1593,0.1599,0.167,0.1674,0.1679,0.1728,0.1703,0.175,0.1762,0.1729,0.1765,0.1766,0.1806,0.1811,0.1818,0.1838,0.1841,0.1853,0.1854,0.1855,0.1855,0,0,0,0,0,0,0,0.159,0.1597,0.1661,0.1671,0.1676,0.1688,0.1696,0.1711,0.1758,0.1732,0.1737,0.1747,0.1809,0.1816,0.182,0.1842,0.1853,0.1854,0.1856,0.1856,0.1972,0.1973,0,0,0,0,0,0,0.1585,0.1593,0.1659,0.1664,0.1641,0.1689,0.1698,0.1709,0.1758,0.1767,0.1746,0.175,0.1812,0.1818,0.1823,0.1911,0.1855,0.1857,0.1858,0.197,0.1972,0.1974,0,0,0,0,0,0,0.1583,0.159,0.1657,0.1632,0.1641,0.1689,0.1702,0.171,0.1755,0.1769,0.1778,0.1787,0.1813,0.1821,0.1872,0.1911,0.1857,0.1859,0.1967,0.197,0.1973,0.2022,0,0,0,0,0,0,0.158,0.1589,0.1611,0.1631,0.1643,0.1693,0.1701,0.171,0.1758,0.1764,0.1806,0.1813,0.1815,0.1869,0.1874,0.1912,0.1861,0.1965,0.1969,0.1972,0.2018,0.2026,0.2033,0,0,0,0,0,0.1577,0.1595,0.1612,0.1621,0.1666,0.1694,0.1702,0.1738,0.1759,0.1782,0.1816,0.1814,0.1895,0.1872,0.1877,0.1917,0.1963,0.1968,0.1972,0.2015,0.2025,0.2033,0,0,0,0,0,0,0.1568,0.1603,0.1622,0.1652,0.1683,0.1705,0.1734,0.1757,0.1801,0.1819,0.1832,0.1841,0.1901,0.1903,0.1877,0.1962,0.1931,0.1937,0.1962,0.1972,0.1979,0.1981,0.1862,0,0,0,0,0,0.1576,0.1602,0.1633,0.1661,0.168,0.1714,0.1737,0.1763,0.1796,0.1819,0.1849,0.1884,0.1915,0.194,0.1963,0.2006,0.2014,0.2038,0.2046,0.2052,0.2059,0.2107,0.2119,0.1988,0.1988,0.1988,0,0,0.1581,0.1604,0.1621,0.1663,0.1691,0.172,0.1732,0.1778,0.1812,0.1819,0.1885,0.1911,0.1933,0.1984,0.2011,0.1996,0.2094,0.2057,0.2062,0.2066,0.2112,0.2125,0.2136,0.1991,0.199,0.199,0,0,0.1591,0.1627,0.1651,0.168,0.173,0.1749,0.177,0.1815,0.1851,0.1907,0.1926,0.1979,0.2024,0.205,0.2066,0.213,0.2131,0.2145,0.2187,0.2234,0.2245,0.2255,0.2279,0.2291,0.215,0.215,0.2151,0,0.1601,0.1631,0.1663,0.1692,0.1723,0.1765,0.1798,0.1833,0.1893,0.1931,0.1939,0.2035,0.2054,0.2117,0.2144,0.2147,0.2168,0.2148,0.2243,0.2253,0.2262,0.2285,0.2297,0.2153,0.2153,0.2153,0.2152,0,0.1617,0.1657,0.1675,0.1726,0.1763,0.18,0.1848,0.1901,0.195,0.1986,0.2074,0.2105,0.2166,0.2182,0.2183,0.2264,0.2255,0.2244,0.2216,0.2278,0.2298,0.231,0.2157,0.2156,0.2156,0.2155,0,0,0.1595,0.1672,0.1683,0.1714,0.1787,0.1812,0.1884,0.1952,0.2008,0.2075,0.2148,0.2211,0.2246,0.2266,0.2284,0.2324,0.2404,0.2319,0.232,0.2337,0.2503,0.2349,0.2346,0.2415,0.2418,0.242,0.249,0,0.1602,0.1654,0.1699,0.1758,0.1788,0.1858,0.1916,0.199,0.2059,0.2139,0.2199,0.2272,0.2272,0.2316,0.2359,0.24,0.2438,0.2385,0.2447,0.2449,0.2298,0.2356,0.2427,0.2499,0.2501,0.2503,0.2504,0,0.1598,0.1636,0.1694,0.1776,0.1798,0.1848,0.1956,0.2016,0.2136,0.2194,0.2286,0.2335,0.2427,0.2407,0.2511,0.2483,0.2503,0.2517,0.252,0.2366,0.2315,0.2426,0.2525,0.2524,0.2522,0.2521,0.2519,0,0.1546,0.1629,0.1676,0.1705,0.1805,0.1862,0.1927,0.2044,0.2108,0.2245,0.2312,0.2414,0.2488,0.2536,0.2587,0.2565,0.2679,0.2647,0.2521,0.2511,0.2606,0.2595,0.271,0.271,0.271,0.271,0.271,0,0.1516,0.1557,0.1662,0.1687,0.1754,0.1843,0.1938,0.2018,0.2145,0.2221,0.2345,0.2412,0.253,0.2607,0.2622,0.261,0.2715,0.2536,0.2523,0.2625,0.2615,0.2614,0.2602,0.2713,0.2712,0.2711,0.2711,0,0.1449,0.152,0.1576,0.169,0.1732,0.1786,0.1931,0.1988,0.2131,0.2238,0.229,0.2449,0.2546,0.263,0.2716,0.2646,0.2651,0.2618,0.2729,0.2719,0.244,0.243,0.2474,0.2469,0.2465,0.2462,0.2459,0,0.1415,0.1438,0.1561,0.1598,0.1658,0.1757,0.1817,0.1964,0.2024,0.2234,0.2262,0.2426,0.2514,0.2516,0.2608,0.2626,0.2595,0.2573,0.2491,0.2436,0.2419,0.2415,0.2411,0.2453,0.2452,0.2451,0.2449,0,0.1344,0.1404,0.1452,0.1525,0.1595,0.1661,0.1763,0.179,0.1959,0.2111,0.219,0.2253,0.236,0.242,0.2462,0.2465,0.2571,0.253,0.2537,0.2459,0.241,0.2397,0.2397,0.2435,0.2437,0.2439,0.244,0,0.1296,0.131,0.1381,0.1434,0.151,0.1536,0.1607,0.168,0.1759,0.1981,0.2004,0.2181,0.2335,0.2338,0.2372,0.2371,0.2326,0.2233,0.2255,0.2272,0.2172,0.2077,0.1995,0,0,0,0,0,0.1236,0.1241,0.128,0.1327,0.1393,0.1442,0.1551,0.1625,0.1789,0.1791,0.1892,0.198,0.2055,0.2144,0.2102,0.2272,0.2326,0.2211,0.2228,0.2358,0.2374,0.2274,0,0,0,0,0,0,0.1193,0.123,0.1242,0.1225,0.1238,0.1297,0.1362,0.1472,0.1482,0.1662,0.1714,0.1859,0.196,0.2067,0.2068,0.2092,0.2059,0.232,0.2315,0.2348,0.2363,0.2376,0.228,0,0,0,0,0]},{"header":{"parameterUnit":"m.s-1","parameterCategory":2,"la1":30.2991,"la2":30.254,"lo1":-89.0895,"lo2":-89.0444,"dy":0.0017,"dx":0.0017,"nx":28,"ny":28,"refTime":"2024-04-01T03:00:00:Z","depth":"4","parameterNumber":3,"parameterNumberName":"V-component_of_CURRENTS"},"data":[0,0,0,0,0,0,0,0,0,0,0,0,0,0,0,0,0,0,0,0,0,0,0,0,0,0,0,0,0,0,0,0,0,0,0,0,0,0,0,0,0,0,0,0,0,0,0,0,0,0,0,0,0,0,0,0,0,0,-0.0015,-0.0015,0,-0.0045,-0.0046,-0.0046,-0.0072,-0.0072,-0.0073,-0.0073,-0.0132,-0.0133,-0.0135,0,0,0,0,0,0,0,0,0,0,0,0,0,-0.0014,-0.0014,-0.0015,-0.0015,-0.0016,-0.0045,-0.0046,-0.0046,-0.0072,-0.0072,-0.0073,-0.0073,-0.0132,-0.0133,-0.0135,0,0,0,0,0,0,0,0,0,0,0,0,0,-0.0027,-0.0014,-0.0015,-0.0031,-0.0033,-0.0045,-0.0046,-0.0046,-0.0072,-0.0072,-0.0073,-0.0073,-0.0131,-0.0133,-0.0135,-0.0142,0,0,-0.0141,-0.0142,0,0,0,0,0,0,0,0,-0.0027,-0.0027,-0.0029,-0.003,-0.0032,-0.0054,-0.0067,-0.0079,-0.0072,-0.0058,-0.0073,-0.0073,-0.0108,-0.0112,-0.0118,-0.0145,-0.0147,-0.0142,-0.0143,-0.0144,-0.0144,0,0,0,0,0,0,0,-0.0026,-0.0027,-0.0028,-0.0029,-0.0031,-0.0049,-0.0051,-0.007,-0.0082,-0.006,-0.0061,-0.0063,-0.0109,-0.0116,-0.0119,-0.0148,-0.0142,-0.0143,-0.0145,-0.0145,-0.0182,-0.0182,0,0,0,0,0,0,-0.0018,-0.0025,-0.0027,-0.0029,-0.0029,-0.0048,-0.0051,-0.0048,-0.0082,-0.0086,-0.0063,-0.0064,-0.0112,-0.0117,-0.0122,-0.0118,-0.0144,-0.0146,-0.0147,-0.0182,-0.0182,-0.0182,0,0,0,0,0,0,-0.0017,-0.0017,-0.0026,-0.0027,-0.003,-0.0048,-0.0044,-0.0048,-0.0053,-0.0083,-0.0089,-0.0064,-0.0112,-0.0119,-0.0134,-0.0121,-0.0147,-0.0148,-0.0183,-0.0182,-0.0182,-0.0119,0,0,0,0,0,0,-0.0017,-0.0017,-0.0013,-0.0027,-0.0029,-0.0026,-0.0044,-0.0048,-0.0053,-0.0055,-0.0086,-0.0092,-0.0113,-0.013,-0.0136,-0.0124,-0.015,-0.0183,-0.0182,-0.0182,-0.0122,-0.0117,-0.0112,0,0,0,0,0,-0.0017,-0.0005,-0.0013,-0.0013,-0.0023,-0.0025,-0.0028,-0.0043,-0.0053,-0.005,-0.0072,-0.0091,-0.0131,-0.0131,-0.0138,-0.0127,-0.0183,-0.0183,-0.0182,-0.0124,-0.0118,-0.0113,0,0,0,0,0,0,-0.0003,-0.0007,-0.0015,-0.0006,-0.0013,-0.0029,-0.0028,-0.0039,-0.0054,-0.0056,-0.0088,-0.0095,-0.0103,-0.0125,-0.0125,-0.0137,-0.016,-0.0161,-0.0114,-0.0108,-0.0104,-0.0088,-0.0152,0,0,0,0,0,0.0002,0.0009,-0.0001,0.0006,0.0005,-0.0012,-0.0015,-0.0023,-0.0038,-0.0044,-0.0066,-0.009,-0.0106,-0.0115,-0.0135,-0.014,-0.0167,-0.0138,-0.0134,-0.013,-0.0122,-0.0152,-0.0149,-0.018,-0.018,-0.018,0,0,0.001,0.0007,0.0011,0.0009,0.0002,0.0011,-0.0015,-0.0013,-0.0004,-0.0049,-0.0048,-0.0075,-0.0104,-0.011,-0.0115,-0.0126,-0.0136,-0.0129,-0.0125,-0.0119,-0.0151,-0.0148,-0.0145,-0.0179,-0.0179,-0.0179,0,0,0.0032,0.0026,0.0041,0.0039,0.0034,0.0028,0.0032,0.0019,0.0014,0.001,-0.0018,-0.0036,-0.0063,-0.0079,-0.0091,-0.0074,-0.0111,-0.0082,-0.0044,-0.0073,-0.0071,-0.0069,-0.01,-0.0101,-0.0079,-0.0079,-0.0078,0,0.0041,0.0058,0.0044,0.0057,0.0063,0.0041,0.0061,0.0055,0.0039,0.0038,0.0019,-0.0018,-0.0046,-0.0047,-0.0043,-0.0062,-0.0087,-0.006,-0.0066,-0.0065,-0.0064,-0.0097,-0.0099,-0.0075,-0.0076,-0.0076,-0.0076,0,0.0074,0.0087,0.0096,0.0108,0.0112,0.0124,0.0119,0.0123,0.0111,0.0097,0.0087,0.0047,0.0027,0.0013,-0.001,-0.0014,-0.0037,-0.0057,-0.0077,-0.0057,-0.0093,-0.0096,-0.0071,-0.0072,-0.0073,-0.0074,0,0,0.0096,0.0116,0.0119,0.0138,0.0141,0.0154,0.0172,0.0182,0.0198,0.0168,0.0179,0.014,0.0111,0.0095,0.0061,0.0034,0.0013,-0.0004,-0.0007,-0.0028,-0.0054,-0.0068,-0.0074,-0.001,-0.001,-0.001,-0.0081,0,0.0126,0.0167,0.0167,0.0211,0.0234,0.0228,0.025,0.0254,0.0244,0.0247,0.0204,0.0194,0.0145,0.0137,0.0103,0.0037,0.0006,0.0034,-0.0076,-0.0079,-0.0088,-0.0077,-0.0011,-0.0084,-0.0085,-0.0086,-0.0086,0,0.0158,0.0184,0.0232,0.0273,0.0283,0.0306,0.0342,0.0358,0.0352,0.0342,0.032,0.0278,0.0242,0.0194,0.0095,0.0114,0.0038,-0.002,-0.0024,-0.006,-0.0099,-0.011,-0.0093,-0.0093,-0.0092,-0.0092,-0.0091,0,0.0185,0.0231,0.0274,0.0286,0.0326,0.0353,0.0377,0.0386,0.041,0.0402,0.0409,0.035,0.0328,0.023,0.0106,0.01,-0.0011,-0.0037,-0.0122,-0.0124,-0.0118,-0.012,-0.0109,-0.0109,-0.0109,-0.0109,-0.0108,0,0.0217,0.0253,0.0294,0.0318,0.0382,0.0394,0.0453,0.0465,0.0485,0.0516,0.046,0.0462,0.0334,0.0253,0.0132,-0.0002,0.0005,-0.0111,-0.014,-0.0091,-0.0089,-0.0121,-0.0122,-0.0111,-0.0111,-0.011,-0.011,0,0.0236,0.0261,0.0317,0.0371,0.0396,0.0442,0.0511,0.0547,0.0561,0.0602,0.0604,0.0546,0.044,0.0301,0.014,0.0039,-0.0095,-0.0149,-0.0081,-0.0107,-0.0196,-0.0193,-0.0243,-0.0244,-0.0245,-0.0246,-0.0247,0,0.0248,0.0277,0.0353,0.0394,0.0423,0.0493,0.0541,0.0582,0.062,0.0649,0.0667,0.059,0.0529,0.0307,0.0144,-0.0079,-0.0119,-0.0189,-0.0197,-0.0184,-0.0209,-0.0204,-0.0199,-0.0248,-0.0248,-0.0248,-0.0249,0,0.0265,0.0291,0.0339,0.042,0.0483,0.0561,0.0631,0.0666,0.0714,0.073,0.0725,0.0617,0.0499,0.0315,0.0142,-0.0024,-0.0141,-0.0199,-0.0198,-0.0206,-0.0191,-0.0213,-0.0207,-0.0252,-0.0251,-0.0251,-0.0251,0,0.0274,0.0309,0.0367,0.0446,0.0525,0.0603,0.0644,0.0696,0.0739,0.077,0.0763,0.0645,0.0579,0.0342,0.018,0.0021,-0.0028,-0.0086,-0.0093,-0.0092,-0.0033,0.0009,-0.0009,0,0,0,0,0,0.0278,0.032,0.0386,0.0475,0.0554,0.0607,0.0692,0.0725,0.0773,0.0779,0.0778,0.067,0.0452,0.0357,0.0196,0.0135,-0.0076,-0.0062,-0.0151,-0.0268,-0.0265,-0.0224,0,0,0,0,0,0,0.0282,0.0341,0.0381,0.0483,0.0547,0.064,0.0699,0.0735,0.074,0.0764,0.0653,0.0619,0.0402,0.0547,0.0191,0.0143,0.0061,-0.0158,-0.0162,-0.027,-0.0267,-0.0264,-0.0221,0,0,0,0,0]}]]